IZ3TCG-13 Weather Reports


Display with metric or nautical units.
time (UTC)temp
F
wind
direction
speed
MPH
gust
MPH
rain 1hr
in
rain 24hr
in
rain mn
in
humidity
%
barometer
mb
20260507210005 61 331 0.0 4.0 0.00 0.00 0.00 85 1015.2
20260507205603 60 328 1.0 4.0 0.00 0.00 0.00 85 1015.0
20260507205204 61 309 0.0 4.0 0.00 0.00 0.00 85 1015.1
20260507204804 61 329 0.0 4.0 0.00 0.00 0.00 84 1015.1
20260507204614 61 334 0.0 4.0 0.00 0.00 0.00 83 1015.1
20260507204003 61 355 2.0 4.0 0.00 0.00 0.00 83 1015.0
20260507203813 61 357 1.0 4.0 0.00 0.00 0.00 83 1014.9
20260507203203 61 89 0.0 2.0 0.00 0.00 0.00 83 1014.9
20260507202804 61 90 0.0 2.0 0.00 0.00 0.00 82 1014.7
20260507202616 61 90 0.0 2.0 0.00 0.00 0.00 82 1015.0
20260507202004 60 0 0.0 0.0 0.00 0.00 0.00 83 1014.7
20260507201603 61 90 0.0 2.0 0.00 0.00 0.00 83 1014.7
20260507201204 61 90 0.0 2.0 0.00 0.00 0.00 83 1014.6
20260507201014 61 90 0.0 4.0 0.00 0.00 0.00 82 1014.4
20260507200613 62 93 0.0 4.0 0.00 0.00 0.00 81 1014.4
20260507200004 62 91 2.0 4.0 0.00 0.00 0.00 80 1014.4
20260507195604 62 87 1.0 7.0 0.00 0.00 0.00 80 1014.5
20260507195416 62 86 1.0 7.0 0.00 0.00 0.00 80 1014.4
20260507195015 62 79 0.0 7.0 0.00 0.00 0.00 79 1014.5
20260507194404 62 82 4.0 7.0 0.00 0.00 0.00 79 1014.5
20260507194004 62 92 1.0 4.0 0.00 0.00 0.00 79 1014.3
20260507193814 62 95 2.0 6.0 0.00 0.00 0.00 79 1014.3
20260507193203 63 94 2.0 6.0 0.00 0.00 0.00 79 1014.1
20260507192803 63 94 2.0 6.0 0.00 0.00 0.00 78 1014.2
20260507192404 63 94 2.0 7.0 0.00 0.00 0.00 79 1014.2
20260507192216 63 91 1.0 7.0 0.00 0.00 0.00 79 1014.3
20260507191604 64 85 3.0 7.0 0.00 0.00 0.00 76 1014.2
20260507191204 64 91 3.0 6.0 0.00 0.00 0.00 76 1013.8
20260507190803 64 88 2.0 6.0 0.00 0.00 0.00 76 1013.9
20260507190404 64 83 2.0 6.0 0.00 0.00 0.00 77 1013.7
20260507190005 64 78 2.0 6.0 0.00 0.00 0.00 78 1013.7
20260507185603 65 80 4.0 6.0 0.00 0.00 0.00 77 1013.5
20260507185203 65 83 2.0 4.0 0.00 0.00 0.00 78 1013.4
20260507184803 65 87 4.0 4.0 0.00 0.00 0.00 78 1013.7
20260507184403 65 90 1.0 4.0 0.00 0.00 0.00 78 1013.4
20260507184004 65 84 2.0 7.0 0.00 0.00 0.00 77 1013.4
20260507183604 66 85 1.0 7.0 0.00 0.00 0.00 76 1013.3
20260507183204 66 84 3.0 7.0 0.00 0.00 0.00 75 1013.3
20260507182803 66 84 1.0 4.0 0.00 0.00 0.00 74 1013.1
20260507182403 66 85 2.0 4.0 0.00 0.00 0.00 72 1013.1
20260507182003 66 86 1.0 4.0 0.00 0.00 0.00 73 1013.0
20260507181603 67 89 1.0 4.0 0.00 0.00 0.00 73 1013.1
20260507181203 67 90 0.0 7.0 0.00 0.00 0.00 73 1013.1
20260507180804 67 89 2.0 7.0 0.00 0.00 0.00 74 1013.0
20260507180614 67 87 2.0 7.0 0.00 0.00 0.00 74 1012.8
20260507180004 67 75 2.0 4.0 0.00 0.00 0.00 77 1012.6
20260507175603 68 72 2.0 4.0 0.00 0.00 0.00 76 1012.9
20260507175417 68 77 1.0 4.0 0.00 0.00 0.00 76 1012.6
20260507174803 68 63 2.0 6.0 0.00 0.00 0.00 75 1012.6
20260507174403 68 49 2.0 6.0 0.00 0.00 0.00 74 1012.6
20260507174004 68 41 0.0 6.0 0.00 0.00 0.00 74 1012.3
20260507173603 69 44 2.0 6.0 0.00 0.00 0.00 73 1012.5
20260507173204 69 24 0.0 6.0 0.00 0.00 0.00 68 1012.3
20260507172804 70 24 2.0 4.0 0.00 0.00 0.00 66 1012.4
20260507172404 69 20 0.0 4.0 0.00 0.00 0.00 67 1012.4
20260507172004 69 7 1.0 7.0 0.00 0.00 0.00 67 1012.4
20260507171603 70 1 1.0 7.0 0.00 0.00 0.00 67 1012.5
20260507171204 70 9 2.0 7.0 0.00 0.00 0.00 66 1012.1
20260507170804 70 15 1.0 6.0 0.00 0.00 0.00 63 1012.1
20260507170404 71 23 3.0 6.0 0.00 0.00 0.00 63 1012.0
20260507170004 71 22 1.0 6.0 0.00 0.00 0.00 62 1012.1
20260507165604 71 18 0.0 4.0 0.00 0.00 0.00 62 1011.9
20260507165204 71 5 0.0 4.0 0.00 0.00 0.00 62 1012.0
20260507164803 71 354 1.0 4.0 0.00 0.00 0.00 62 1011.9
20260507164404 71 348 1.0 4.0 0.00 0.00 0.00 61 1012.1
20260507164005 71 335 1.0 4.0 0.00 0.00 0.00 59 1012.2
20260507163603 71 297 1.0 4.0 0.00 0.00 0.00 57 1012.1
20260507163205 71 271 0.0 4.0 0.00 0.00 0.00 56 1012.1
20260507163014 71 266 1.0 4.0 0.00 0.00 0.00 54 1012.0
20260507162404 71 226 2.0 4.0 0.00 0.00 0.00 53 1012.1
20260507162213 71 199 1.0 4.0 0.00 0.00 0.00 55 1012.3
20260507161603 71 164 0.0 4.0 0.00 0.00 0.00 55 1012.0
20260507161203 71 161 2.0 4.0 0.00 0.00 0.00 54 1012.0
20260507160803 71 187 1.0 6.0 0.00 0.00 0.00 55 1011.9
20260507160404 72 199 1.0 6.0 0.00 0.00 0.00 54 1011.8
20260507160003 73 214 2.0 6.0 0.00 0.00 0.00 50 1012.2
20260507155603 73 215 2.0 6.0 0.00 0.00 0.00 50 1012.0
20260507155204 72 207 1.0 6.0 0.00 0.00 0.00 50 1012.1
20260507154803 73 197 1.0 6.0 0.00 0.00 0.00 52 1011.9
20260507154617 73 194 2.0 7.0 0.00 0.00 0.00 51 1012.1
20260507154217 74 214 2.0 7.0 0.00 0.00 0.00 51 1012.0
20260507153603 73 198 4.0 8.0 0.00 0.00 0.00 50 1011.9
20260507153203 73 173 3.0 8.0 0.00 0.00 0.00 49 1011.7
20260507153015 73 162 4.0 8.0 0.00 0.00 0.00 49 1011.8
20260507152614 72 160 2.0 8.0 0.00 0.00 0.00 52 1011.8
20260507152003 72 192 2.0 8.0 0.00 0.00 0.00 52 1011.9
20260507151604 72 181 3.0 8.0 0.00 0.00 0.00 51 1012.0
20260507151204 72 167 1.0 8.0 0.00 0.00 0.00 53 1011.8
20260507150803 72 159 3.0 7.0 0.00 0.00 0.00 51 1011.9
20260507150403 72 178 2.0 4.0 0.00 0.00 0.00 54 1011.6
20260507150004 73 174 0.0 7.0 0.00 0.00 0.00 52 1011.9
20260507145604 75 187 2.0 7.0 0.00 0.00 0.00 51 1012.0
20260507145203 76 176 2.0 8.0 0.00 0.00 0.00 48 1012.0
20260507144804 76 210 2.0 8.0 0.00 0.00 0.00 49 1012.1
20260507144404 74 220 3.0 8.0 0.00 0.00 0.00 50 1012.0
20260507144218 75 237 4.0 8.0 0.00 0.00 0.00 49 1011.9
20260507143603 76 191 1.0 4.0 0.00 0.00 0.00 49 1011.8
20260507143203 73 200 2.0 4.0 0.00 0.00 0.00 49 1011.9
20260507142804 73 217 2.0 7.0 0.00 0.00 0.00 53 1011.9
20260507142403 75 228 2.0 7.0 0.00 0.00 0.00 53 1011.9
20260507142214 75 231 2.0 7.0 0.00 0.00 0.00 50 1012.2
20260507141814 74 246 1.0 4.0 0.00 0.00 0.00 50 1011.9
20260507141203 73 264 2.0 4.0 0.00 0.00 0.00 51 1012.0
20260507140804 73 239 1.0 8.0 0.00 0.00 0.00 50 1012.0
20260507140403 74 205 0.0 8.0 0.00 0.00 0.00 50 1012.4
20260507140003 77 195 3.0 8.0 0.00 0.00 0.00 49 1012.1
20260507135603 77 217 2.0 6.0 0.00 0.00 0.00 48 1012.1
20260507135203 76 237 2.0 4.0 0.00 0.00 0.00 46 1012.0
20260507135014 75 247 1.0 4.0 0.00 0.00 0.00 48 1012.0
20260507134404 73 213 2.0 6.0 0.00 0.00 0.00 51 1012.3
20260507134004 73 193 1.0 6.0 0.00 0.00 0.00 53 1012.4
20260507133818 73 190 1.0 8.0 0.00 0.00 0.00 52 1012.3
20260507133204 76 223 1.0 8.0 0.00 0.00 0.00 48 1012.3
20260507133016 76 229 3.0 8.0 0.00 0.00 0.00 47 1012.3
20260507132615 75 219 2.0 7.0 0.00 0.00 0.00 47 1012.3
20260507132003 74 206 2.0 7.0 0.00 0.00 0.00 50 1012.4
20260507131603 74 210 3.0 8.0 0.00 0.00 0.00 49 1012.2
20260507131204 74 207 3.0 8.0 0.00 0.00 0.00 51 1012.3
20260507130803 78 205 4.0 7.0 0.00 0.01 0.00 47 1012.3
20260507130404 76 207 1.0 7.0 0.00 0.04 0.00 50 1012.2
20260507130004 75 206 3.0 8.0 0.00 0.06 0.00 50 1012.2
20260507125816 75 207 3.0 8.0 0.00 0.09 0.00 52 1012.2
20260507125203 75 204 4.0 8.0 0.00 0.18 0.00 52 1012.5
20260507125015 76 201 4.0 8.0 0.00 0.20 0.00 51 1012.3
20260507124404 75 212 2.0 6.0 0.00 0.24 0.00 51 1012.5
20260507124214 75 220 2.0 6.0 0.00 0.24 0.00 51 1012.3
20260507123818 75 217 4.0 6.0 0.00 0.24 0.00 52 1012.2
20260507123204 76 180 2.0 7.0 0.00 0.25 0.00 53 1012.5
20260507122803 74 193 3.0 7.0 0.00 0.25 0.00 52 1012.2
20260507122616 74 199 4.0 7.0 0.00 0.25 0.00 53 1012.3
20260507122004 74 198 2.0 7.0 0.00 0.25 0.00 55 1012.3
20260507121603 74 205 3.0 11.0 0.00 0.25 0.00 56 1012.3
20260507121203 74 201 2.0 11.0 0.00 0.25 0.00 57 1012.5
20260507120803 72 200 3.0 11.0 0.00 0.25 0.00 56 1012.2
20260507120404 74 177 2.0 6.0 0.00 0.25 0.00 54 1012.5
20260507120004 74 195 1.0 8.0 0.00 0.25 0.00 58 1012.4
20260507115604 74 227 2.0 8.0 0.00 0.25 0.00 56 1012.4
20260507115203 73 250 2.0 8.0 0.00 0.25 0.00 58 1012.4
20260507114804 74 235 3.0 8.0 0.00 0.25 0.00 56 1012.3
20260507114403 74 222 3.0 8.0 0.00 0.25 0.00 58 1012.5
20260507114003 73 223 1.0 6.0 0.00 0.25 0.00 56 1012.3
20260507113603 73 220 2.0 7.0 0.00 0.25 0.00 58 1012.3
20260507113203 73 189 2.0 7.0 0.00 0.25 0.00 57 1012.5
20260507112803 72 190 2.0 7.0 0.00 0.25 0.00 59 1012.4
20260507112404 74 185 4.0 7.0 0.00 0.25 0.00 56 1012.8
20260507112004 74 175 1.0 7.0 0.00 0.25 0.00 57 1012.4
20260507111603 73 182 2.0 7.0 0.00 0.25 0.00 57 1012.5
20260507111415 72 185 1.0 7.0 0.00 0.25 0.00 56 1012.7
20260507110803 72 191 1.0 8.0 0.00 0.25 0.00 60 1012.5
20260507110614 72 200 3.0 9.0 0.00 0.25 0.00 58 1012.6
20260507110004 72 202 3.0 9.0 0.00 0.25 0.00 59 1012.7
20260507105609 72 183 2.0 6.0 0.00 0.25 0.00 60 1012.8
20260507105203 73 173 2.0 8.0 0.00 0.25 0.00 63 1012.9
20260507104803 72 187 2.0 8.0 0.00 0.25 0.00 63 1012.6
20260507104403 71 187 3.0 8.0 0.00 0.25 0.00 62 1012.9
20260507104004 70 191 2.0 8.0 0.00 0.25 0.00 65 1012.9
20260507103603 72 200 2.0 6.0 0.00 0.25 0.00 59 1013.0
20260507103204 73 210 3.0 6.0 0.00 0.25 0.00 59 1013.0
20260507102803 74 213 0.0 6.0 0.00 0.25 0.00 59 1013.0
20260507102403 72 200 2.0 6.0 0.00 0.25 0.00 61 1013.1
20260507102006 73 155 3.0 4.0 0.00 0.25 0.00 58 1013.3
20260507101604 73 166 1.0 4.0 0.00 0.25 0.00 58 1013.1
20260507101203 73 208 1.0 4.0 0.00 0.25 0.00 60 1013.2
20260507100804 71 224 1.0 11.0 0.00 0.25 0.00 59 1013.3
20260507100404 71 223 2.0 11.0 0.00 0.25 0.00 64 1013.3
20260507095604 71 113 1.0 4.0 0.00 0.25 0.00 62 1015.4
20260507095204 70 95 0.0 6.0 0.00 0.25 0.00 69 1015.4
20260507094803 71 74 2.0 6.0 0.00 0.25 0.00 67 1015.4
20260507094617 70 73 2.0 6.0 0.00 0.25 0.00 69 1015.5
20260507094004 69 51 2.0 4.0 0.00 0.25 0.00 69 1015.6
20260507093603 70 230 0.0 4.0 0.00 0.25 0.00 69 1015.4
20260507093204 70 225 0.0 4.0 0.00 0.26 0.00 69 1015.4
20260507092803 70 233 2.0 4.0 0.00 0.26 0.00 69 1015.3
20260507092614 71 233 2.0 4.0 0.00 0.26 0.00 69 1015.5
20260507092003 68 236 2.0 4.0 0.00 0.27 0.00 74 1015.5
20260507091603 68 212 2.0 4.0 0.00 0.27 0.00 76 1015.3
20260507091204 67 197 0.0 4.0 0.00 0.28 0.00 78 1015.5
20260507090803 66 191 1.0 2.0 0.00 0.30 0.00 81 1015.2
20260507090404 66 169 1.0 2.0 0.00 0.30 0.00 79 1015.4
20260507090215 66 169 0.0 2.0 0.00 0.30 0.00 80 1015.5
20260507085603 67 132 2.0 2.0 0.00 0.30 0.00 76 1015.3
20260507085203 68 145 0.0 7.0 0.00 0.30 0.00 71 1015.4
20260507084803 69 234 0.0 7.0 0.00 0.30 0.00 68 1015.3
20260507084404 70 204 2.0 7.0 0.00 0.30 0.00 66 1015.3
20260507084004 71 155 1.0 4.0 0.00 0.30 0.00 65 1015.1
20260507083603 73 181 2.0 4.0 0.00 0.30 0.00 66 1015.5
20260507083416 73 243 0.0 4.0 0.00 0.30 0.00 65 1015.3
20260507082803 68 268 1.0 6.0 0.00 0.30 0.00 70 1015.4
20260507082614 68 271 2.0 6.0 0.00 0.30 0.00 74 1015.1
20260507082003 70 123 2.0 4.0 0.00 0.30 0.00 72 1015.3
20260507081603 69 128 1.0 4.0 0.00 0.30 0.00 75 1015.3
20260507081203 69 190 1.0 4.0 0.00 0.30 0.00 76 1015.0
20260507080804 67 225 0.0 4.0 0.00 0.30 0.00 75 1015.1
20260507080404 66 239 2.0 4.0 0.00 0.30 0.00 81 1015.1
20260507080004 67 238 0.0 4.0 0.00 0.30 0.00 79 1015.1
20260507075604 67 259 0.0 4.0 0.00 0.30 0.00 79 1015.3
20260507075203 67 256 0.0 2.0 0.00 0.30 0.00 78 1015.3
20260507074803 66 211 0.0 2.0 0.00 0.30 0.00 81 1015.3
20260507074403 64 221 0.0 2.0 0.00 0.30 0.00 84 1015.3
20260507074004 64 245 0.0 2.0 0.00 0.30 0.00 85 1015.1
20260507073817 65 246 1.0 2.0 0.00 0.30 0.00 84 1015.1
20260507073204 65 266 0.0 2.0 0.00 0.30 0.00 84 1015.0
20260507072804 68 351 0.0 2.0 0.00 0.30 0.00 82 1014.9
20260507072404 68 59 0.0 2.0 0.00 0.30 0.00 78 1015.0
20260507072003 67 67 1.0 2.0 0.00 0.30 0.00 82 1015.1
20260507071604 64 0 0.0 0.0 0.00 0.30 0.00 85 1015.0
20260507071203 64 0 0.0 0.0 0.00 0.30 0.00 87 1014.9
20260507070804 64 0 0.0 0.0 0.00 0.30 0.00 87 1014.9
20260507070404 64 22 0.0 2.0 0.00 0.30 0.00 88 1014.7
20260507070008 63 4 0.0 2.0 0.00 0.30 0.00 88 1014.9
20260507065604 63 324 0.0 2.0 0.00 0.30 0.00 90 1014.9
20260507065203 62 260 0.0 2.0 0.00 0.30 0.00 92 1014.7
20260507065014 62 255 0.0 2.0 0.00 0.31 0.00 92 1014.7
20260507064614 62 256 1.0 4.0 0.00 0.31 0.00 92 1014.7
20260507064004 63 264 0.0 4.0 0.00 0.31 0.00 92 1014.7
20260507063603 61 266 2.0 4.0 0.00 0.31 0.00 94 1014.8
20260507063203 62 216 1.0 2.0 0.00 0.31 0.00 95 1014.8
20260507062803 61 0 0.0 0.0 0.00 0.31 0.00 99 1014.5
20260507062403 61 262 0.0 2.0 0.00 0.31 0.00 99 1014.7
20260507062003 59 268 0.0 4.0 0.00 0.31 0.00 99 1014.6
20260507061603 59 267 1.0 4.0 0.00 0.31 0.00 99 1014.7
20260507061204 59 262 0.0 4.0 0.00 0.31 0.00 99 1014.5
20260507060803 59 234 0.0 2.0 0.00 0.31 0.00 99 1014.8
20260507060403 59 219 0.0 2.0 0.00 0.31 0.00 99 1014.7
20260507060003 59 235 0.0 2.0 0.00 0.31 0.00 99 1014.7
20260507055603 58 270 0.0 2.0 0.00 0.31 0.00 99 1014.6
20260507055203 58 272 1.0 2.0 0.00 0.31 0.00 99 1014.5
20260507054803 58 262 0.0 2.0 0.00 0.31 0.00 99 1014.6
20260507054403 58 237 1.0 2.0 0.00 0.31 0.00 99 1014.5
20260507054003 58 248 0.0 4.0 0.00 0.31 0.00 99 1014.4
20260507053603 58 258 0.0 4.0 0.00 0.31 0.00 99 1014.2
20260507053204 57 240 2.0 2.0 0.00 0.31 0.00 99 1014.5
20260507052804 58 234 0.0 2.0 0.00 0.31 0.00 99 1014.4
20260507052616 58 230 0.0 2.0 0.00 0.31 0.00 99 1014.3
20260507052005 58 247 0.0 2.0 0.00 0.31 0.00 99 1014.1
20260507051604 58 0 0.0 0.0 0.00 0.31 0.00 99 1014.2
20260507051203 57 0 0.0 0.0 0.00 0.31 0.00 99 1014.3
20260507050804 57 0 0.0 0.0 0.00 0.31 0.00 99 1014.2
20260507050404 57 0 0.0 0.0 0.00 0.31 0.00 99 1014.0
20260507050004 56 0 0.0 0.0 0.00 0.31 0.00 99 1014.1
20260507045603 56 0 0.0 0.0 0.00 0.31 0.00 99 1013.9
20260507045203 56 270 0.0 2.0 0.00 0.31 0.00 99 1014.0
20260507044804 56 270 0.0 2.0 0.00 0.31 0.00 99 1013.9
20260507044403 56 270 0.0 2.0 0.00 0.31 0.00 99 1014.0
20260507044003 56 270 0.0 2.0 0.00 0.31 0.00 99 1014.0
20260507043604 56 270 0.0 2.0 0.00 0.31 0.00 99 1013.8
20260507043203 56 270 0.0 2.0 0.00 0.31 0.00 99 1013.8
20260507043017 56 270 0.0 2.0 0.00 0.31 0.00 99 1013.8
20260507042403 56 270 1.0 2.0 0.00 0.31 0.00 99 1013.8
20260507042216 56 270 0.0 2.0 0.00 0.31 0.00 99 1013.8
20260507041603 56 0 0.0 0.0 0.00 0.31 0.00 99 1013.7
20260507041204 56 0 0.0 0.0 0.00 0.31 0.00 99 1013.5
20260507040805 56 0 0.0 0.0 0.00 0.31 0.00 99 1013.5
20260507040403 56 0 0.0 0.0 0.00 0.31 0.00 99 1013.6
20260507040004 56 0 0.0 0.0 0.00 0.31 0.00 99 1013.5
20260507035603 56 0 0.0 0.0 0.00 0.31 0.00 99 1013.5
20260507035203 56 0 0.0 0.0 0.00 0.31 0.00 99 1013.5
20260507034803 56 0 0.0 0.0 0.00 0.31 0.00 99 1013.4
20260507034616 56 0 0.0 0.0 0.00 0.31 0.00 99 1013.3
20260507034004 56 0 0.0 0.0 0.00 0.32 0.00 99 1013.7
20260507033603 56 0 0.0 0.0 0.00 0.37 0.00 99 1013.7
20260507033203 56 0 0.0 0.0 0.00 0.38 0.00 99 1013.6
20260507032804 56 0 0.0 0.0 0.00 0.43 0.00 99 1013.5
20260507032403 56 22 0.0 2.0 0.00 0.44 0.00 99 1013.5
20260507032004 56 22 0.0 2.0 0.00 0.44 0.00 99 1013.6
20260507031604 56 22 0.0 2.0 0.00 0.44 0.00 99 1013.4
20260507031204 56 356 0.0 2.0 0.00 0.44 0.00 99 1013.5
20260507030804 56 297 1.0 2.0 0.00 0.44 0.00 99 1013.5
20260507030614 55 286 0.0 2.0 0.00 0.44 0.00 99 1013.4
20260507030004 55 304 0.0 2.0 0.00 0.44 0.00 99 1013.3
20260507025604 55 322 0.0 2.0 0.00 0.44 0.00 99 1013.4
20260507025205 55 351 1.0 2.0 0.00 0.44 0.00 99 1013.3
20260507025017 55 299 0.0 2.0 0.00 0.44 0.00 99 1013.3
20260507024403 55 292 0.0 2.0 0.00 0.44 0.00 99 1013.2
20260507024003 54 0 0.0 0.0 0.00 0.44 0.00 99 1013.3
20260507023604 54 0 0.0 0.0 0.00 0.44 0.00 99 1013.5
20260507023203 54 0 0.0 0.0 0.00 0.44 0.00 99 1013.1
20260507023014 54 0 0.0 0.0 0.00 0.44 0.00 99 1013.2
20260507022403 54 0 0.0 0.0 0.00 0.44 0.00 99 1013.4
20260507022217 54 0 0.0 0.0 0.00 0.44 0.00 99 1013.2
20260507021603 54 0 0.0 0.0 0.00 0.44 0.00 99 1013.4
20260507021204 54 0 0.0 0.0 0.00 0.44 0.00 99 1013.4
20260507020803 54 0 0.0 0.0 0.00 0.44 0.00 99 1013.1
20260507020404 54 0 0.0 0.0 0.00 0.44 0.00 99 1013.4
20260507020004 54 0 0.0 0.0 0.00 0.44 0.00 99 1013.2
20260507015603 54 0 0.0 0.0 0.00 0.44 0.00 99 1013.2
20260507015418 54 0 0.0 0.0 0.00 0.44 0.00 99 1013.4
20260507014804 54 0 0.0 0.0 0.00 0.44 0.00 99 1013.3
20260507014404 54 0 0.0 0.0 0.00 0.44 0.00 99 1013.3
20260507014003 54 0 0.0 0.0 0.00 0.44 0.00 99 1013.2
20260507013603 54 0 0.0 0.0 0.00 0.44 0.00 99 1013.2
20260507013204 55 0 0.0 0.0 0.00 0.44 0.00 99 1013.2
20260507012804 54 0 0.0 0.0 0.00 0.44 0.00 99 1013.1
20260507012614 54 0 0.0 0.0 0.00 0.44 0.00 99 1013.1
20260507012213 54 0 0.0 0.0 0.00 0.44 0.00 99 1013.0
20260507011603 55 0 0.0 0.0 0.00 0.44 0.00 99 1013.2
20260507011205 55 0 0.0 0.0 0.00 0.44 0.00 99 1013.1
20260507010804 56 0 0.0 0.0 0.00 0.44 0.00 99 1012.9
20260507010403 56 0 0.0 0.0 0.00 0.44 0.00 99 1013.1
20260507010215 56 0 0.0 0.0 0.00 0.44 0.00 99 1013.0
20260507005604 56 0 0.0 0.0 0.00 0.44 0.00 99 1013.4
20260507005203 56 270 0.0 2.0 0.00 0.44 0.00 99 1013.3
20260507004804 56 276 0.0 2.0 0.00 0.44 0.00 99 1013.1
20260507004404 56 275 0.0 2.0 0.00 0.44 0.00 99 1013.2
20260507004004 56 270 0.0 2.0 0.00 0.44 0.00 99 1013.0
20260507003604 55 270 0.0 2.0 0.00 0.44 0.00 99 1013.2
20260507003203 55 270 0.0 2.0 0.00 0.44 0.00 99 1013.1
20260507002803 56 270 0.0 2.0 0.00 0.44 0.00 99 1013.2
20260507002403 56 270 0.0 2.0 0.00 0.44 0.00 99 1013.4
20260507002003 55 0 0.0 0.0 0.00 0.44 0.00 99 1013.1
20260507001603 55 0 0.0 0.0 0.00 0.44 0.00 99 1013.0
20260507001412 55 0 0.0 0.0 0.00 0.44 0.00 99 1013.0
20260507000803 56 0 0.0 0.0 0.00 0.44 0.00 99 1013.1
20260507000405 56 0 0.0 0.0 0.00 0.44 0.00 99 1012.9
20260507000216 56 0 0.0 0.0 0.00 0.44 0.00 99 1013.0
20260506235603 56 0 0.0 0.0 0.00 0.44 0.00 99 1013.1
20260506235204 56 0 0.0 0.0 0.00 0.44 0.00 99 1013.2
20260506234804 56 0 0.0 0.0 0.00 0.44 0.00 99 1013.2
20260506234613 56 0 0.0 0.0 0.00 0.44 0.00 99 1012.9
20260506234004 56 282 0.0 2.0 0.00 0.44 0.00 99 1013.1
20260506233604 57 282 0.0 2.0 0.00 0.44 0.00 99 1013.2
20260506233203 57 337 0.0 2.0 0.00 0.44 0.00 99 1013.3
20260506233016 57 0 0.0 0.0 0.00 0.44 0.00 99 1013.2
20260506232404 57 0 0.0 0.0 0.00 0.44 0.00 99 1013.1
20260506232004 57 0 0.0 0.0 0.00 0.44 0.00 99 1013.2
20260506231604 56 0 0.0 0.0 0.00 0.44 0.00 99 1012.9
20260506231413 56 0 0.0 0.0 0.00 0.44 0.00 99 1013.1
20260506230803 56 0 0.0 0.0 0.00 0.44 0.00 99 1013.1
20260506230403 56 0 0.0 0.0 0.00 0.44 0.00 99 1013.3
20260506230004 57 0 0.0 0.0 0.00 0.44 0.00 99 1013.1
20260506225604 57 0 0.0 0.0 0.00 0.44 0.00 99 1013.0
20260506225203 57 0 0.0 0.0 0.00 0.44 0.00 99 1013.0
20260506224803 57 0 0.0 0.0 0.00 0.44 0.00 99 1013.1
20260506224404 57 0 0.0 0.0 0.00 0.44 0.00 99 1012.9
20260506224004 57 0 0.0 0.0 0.00 0.44 0.00 99 1013.0
20260506223818 57 0 0.0 0.0 0.00 0.44 0.00 99 1012.9
20260506223204 56 0 0.0 0.0 0.00 0.44 0.00 99 1013.2
20260506222805 57 0 0.0 0.0 0.00 0.44 0.00 99 1013.4
20260506222404 57 0 0.0 0.0 0.00 0.44 0.00 99 1013.2
20260506222003 57 0 0.0 0.0 0.00 0.44 0.00 99 1013.2
20260506221603 57 0 0.0 0.0 0.00 0.44 0.00 99 1013.1
20260506221204 57 0 0.0 0.0 0.00 0.44 0.00 99 1013.2
20260506220803 57 0 0.0 0.0 0.00 0.44 0.00 99 1013.1
20260506220405 57 0 0.0 0.0 0.00 0.44 0.00 99 1013.4
20260506220007 57 0 0.0 0.0 0.00 0.44 0.00 99 1013.2
20260506215816 57 0 0.0 0.0 0.00 0.44 0.44 99 1013.2
20260506215204 58 0 0.0 0.0 0.00 0.44 0.44 99 1013.3
20260506214804 58 0 0.0 0.0 0.00 0.44 0.44 99 1013.0
20260506214403 58 337 0.0 2.0 0.00 0.44 0.44 99 1013.0
20260506214214 58 337 0.0 2.0 0.00 0.44 0.44 99 1013.1
20260506213604 59 337 0.0 2.0 0.00 0.44 0.44 99 1013.0
20260506213204 59 337 0.0 2.0 0.00 0.44 0.44 99 1012.9
20260506212805 59 0 0.0 0.0 0.00 0.44 0.44 99 1012.9
20260506212404 59 0 0.0 0.0 0.00 0.44 0.44 99 1012.9
20260506212004 59 0 0.0 0.0 0.00 0.44 0.44 99 1013.0
20260506211815 59 0 0.0 0.0 0.00 0.44 0.44 99 1012.9
20260506211203 59 0 0.0 0.0 0.00 0.44 0.44 99 1013.0
20260506210804 59 0 0.0 0.0 0.00 0.44 0.44 99 1012.8